Time,TemperatureF,DewpointF,PressureIn,WindDirection,WindDirectionDegrees,WindSpeedMPH,WindSpeedGustMPH,Humidity,HourlyPrecipIn,Conditions,Clouds,dailyrainin,SoftwareType,DateUTC
2013-07-19 00:00:00,78.1,73.6,29.97,West,272,0.0,0.0,86,0.00,,,0.00,Wunderground v.1.15,2013-07-19 05:00:00,
2013-07-19 00:05:00,78.2,73.7,29.97,West,272,0.0,0.0,86,0.00,,,0.00,Wunderground v.1.15,2013-07-19 05:05:00,
2013-07-19 00:15:00,78.1,73.6,29.97,West,273,0.0,0.0,86,0.00,,,0.00,Wunderground v.1.15,2013-07-19 05:15:00,
2013-07-19 00:25:00,78.0,73.5,29.97,West,273,0.0,0.0,86,0.00,,,0.00,Wunderground v.1.15,2013-07-19 05:25:00,
2013-07-19 00:35:00,77.9,73.4,29.96,West,272,0.0,0.0,86,0.00,,,0.00,Wunderground v.1.15,2013-07-19 05:35:00,
2013-07-19 00:40:00,77.9,73.4,29.96,West,272,0.0,1.0,86,0.00,,,0.00,Wunderground v.1.15,2013-07-19 05:40:00,
2013-07-19 00:45:00,77.8,73.3,29.96,West,272,0.0,1.0,86,0.00,,,0.00,Wunderground v.1.15,2013-07-19 05:45:00,
2013-07-19 00:50:00,77.8,73.3,29.95,West,270,0.0,0.0,86,0.00,,,0.00,Wunderground v.1.15,2013-07-19 05:50:00,
2013-07-19 00:55:00,77.8,73.3,29.95,West,270,0.0,0.0,86,0.00,,,0.00,Wunderground v.1.15,2013-07-19 05:55:00,
2013-07-19 01:00:00,77.7,73.2,29.96,West,269,0.0,0.0,86,0.00,,,0.00,Wunderground v.1.15,2013-07-19 06:00:00,
2013-07-19 01:05:00,77.7,73.2,29.96,West,269,0.0,0.0,86,0.00,,,0.00,Wunderground v.1.15,2013-07-19 06:05:00,
2013-07-19 01:15:00,77.6,73.1,29.96,West,269,0.0,0.0,86,0.00,,,0.00,Wunderground v.1.15,2013-07-19 06:15:00,
2013-07-19 01:20:00,77.6,73.1,29.95,West,269,0.0,0.0,86,0.00,,,0.00,Wunderground v.1.15,2013-07-19 06:20:00,
2013-07-19 01:25:00,77.6,73.1,29.95,West,269,0.0,0.0,86,0.00,,,0.00,Wunderground v.1.15,2013-07-19 06:25:00,
2013-07-19 01:35:00,77.4,72.9,29.95,West,269,0.0,0.0,86,0.00,,,0.00,Wunderground v.1.15,2013-07-19 06:35:00,
2013-07-19 01:40:00,77.2,72.7,29.95,West,269,0.0,0.0,86,0.00,,,0.00,Wunderground v.1.15,2013-07-19 06:40:00,
2013-07-19 01:45:00,76.9,72.7,29.95,West,269,0.0,0.0,87,0.00,,,0.00,Wunderground v.1.15,2013-07-19 06:45:00,
2013-07-19 01:50:00,76.6,72.4,29.95,West,269,0.0,0.0,87,0.00,,,0.00,Wunderground v.1.15,2013-07-19 06:50:00,
2013-07-19 01:55:00,76.5,72.7,29.95,West,269,0.0,0.0,88,0.00,,,0.00,Wunderground v.1.15,2013-07-19 06:55:00,
2013-07-19 02:05:00,76.1,72.3,29.95,West,269,0.0,0.0,88,0.00,,,0.00,Wunderground v.1.15,2013-07-19 07:05:00,
2013-07-19 02:15:00,75.6,72.1,29.94,West,269,0.0,0.0,89,0.00,,,0.00,Wunderground v.1.15,2013-07-19 07:15:00,
2013-07-19 02:25:00,75.2,72.1,29.94,West,269,0.0,0.0,90,0.00,,,0.00,Wunderground v.1.15,2013-07-19 07:25:00,
2013-07-19 02:30:00,75.1,72.0,29.94,West,269,0.0,0.0,90,0.00,,,0.00,Wunderground v.1.15,2013-07-19 07:30:00,
2013-07-19 02:35:00,75.0,72.2,29.94,West,269,0.0,0.0,91,0.00,,,0.00,Wunderground v.1.15,2013-07-19 07:35:00,
2013-07-19 02:40:00,75.1,72.3,29.94,West,269,0.0,0.0,91,0.00,,,0.00,Wunderground v.1.15,2013-07-19 07:40:00,
2013-07-19 02:45:00,75.0,71.9,29.93,West,269,0.0,0.0,90,0.00,,,0.00,Wunderground v.1.15,2013-07-19 07:45:00,
2013-07-19 02:50:00,74.8,72.0,29.93,West,269,0.0,0.0,91,0.00,,,0.00,Wunderground v.1.15,2013-07-19 07:50:00,
2013-07-19 03:00:00,74.4,71.6,29.93,West,269,0.0,0.0,91,0.00,,,0.00,Wunderground v.1.15,2013-07-19 08:00:00,
2013-07-19 03:05:00,74.3,71.5,29.93,West,269,0.0,0.0,91,0.00,,,0.00,Wunderground v.1.15,2013-07-19 08:05:00,
2013-07-19 03:15:00,74.0,71.2,29.93,West,269,0.0,0.0,91,0.00,,,0.00,Wunderground v.1.15,2013-07-19 08:15:00,
2013-07-19 03:20:00,73.8,71.0,29.93,West,269,0.0,0.0,91,0.00,,,0.00,Wunderground v.1.15,2013-07-19 08:20:00,
2013-07-19 03:25:00,73.6,71.1,29.93,West,269,0.0,0.0,92,0.00,,,0.00,Wunderground v.1.15,2013-07-19 08:25:00,
2013-07-19 03:30:00,73.4,70.9,29.93,West,269,0.0,0.0,92,0.00,,,0.00,Wunderground v.1.15,2013-07-19 08:30:00,
2013-07-19 03:35:00,73.3,70.8,29.92,West,269,0.0,0.0,92,0.00,,,0.00,Wunderground v.1.15,2013-07-19 08:35:00,
2013-07-19 03:45:00,73.2,71.1,29.92,West,269,0.0,0.0,93,0.00,,,0.00,Wunderground v.1.15,2013-07-19 08:45:00,
2013-07-19 03:50:00,73.2,71.1,29.92,West,269,0.0,0.0,93,0.00,,,0.00,Wunderground v.1.15,2013-07-19 08:50:00,
2013-07-19 03:55:00,73.2,71.1,29.92,West,269,0.0,0.0,93,0.00,,,0.00,Wunderground v.1.15,2013-07-19 08:55:00,
2013-07-19 04:00:00,73.3,71.2,29.91,West,269,0.0,0.0,93,0.00,,,0.00,Wunderground v.1.15,2013-07-19 09:00:00,
2013-07-19 04:05:00,73.6,71.4,29.91,West,269,0.0,0.0,93,0.00,,,0.00,Wunderground v.1.15,2013-07-19 09:05:00,
2013-07-19 04:15:00,74.3,71.8,29.91,West,269,0.0,0.0,92,0.00,,,0.00,Wunderground v.1.15,2013-07-19 09:15:00,
2013-07-19 04:20:00,74.7,71.9,29.91,West,269,0.0,0.0,91,0.00,,,0.00,Wunderground v.1.15,2013-07-19 09:20:00,
2013-07-19 04:25:00,75.2,72.1,29.91,West,269,0.0,0.0,90,0.00,,,0.00,Wunderground v.1.15,2013-07-19 09:25:00,
2013-07-19 04:35:00,75.6,71.8,29.91,West,269,0.0,0.0,88,0.00,,,0.00,Wunderground v.1.15,2013-07-19 09:35:00,
2013-07-19 04:40:00,75.7,71.6,29.91,West,269,0.0,0.0,87,0.00,,,0.00,Wunderground v.1.15,2013-07-19 09:40:00,
2013-07-19 04:45:00,75.9,71.8,29.91,West,269,0.0,0.0,87,0.00,,,0.00,Wunderground v.1.15,2013-07-19 09:45:00,
2013-07-19 04:50:00,75.9,71.4,29.90,West,268,0.0,0.0,86,0.00,,,0.00,Wunderground v.1.15,2013-07-19 09:50:00,
2013-07-19 05:00:00,75.8,71.3,29.90,West,269,0.0,0.0,86,0.00,,,0.00,Wunderground v.1.15,2013-07-19 10:00:00,
2013-07-19 05:05:00,75.8,71.3,29.91,West,269,0.0,0.0,86,0.00,,,0.00,Wunderground v.1.15,2013-07-19 10:05:00,
2013-07-19 05:15:00,75.8,71.3,29.91,West,268,0.0,0.0,86,0.00,,,0.00,Wunderground v.1.15,2013-07-19 10:15:00,
2013-07-19 05:25:00,75.8,71.3,29.91,West,268,0.0,0.0,86,0.00,,,0.00,Wunderground v.1.15,2013-07-19 10:25:00,
2013-07-19 05:30:00,75.8,71.3,29.91,West,268,0.0,0.0,86,0.00,,,0.00,Wunderground v.1.15,2013-07-19 10:30:00,
2013-07-19 05:35:00,75.9,71.4,29.91,West,268,0.0,0.0,86,0.00,,,0.00,Wunderground v.1.15,2013-07-19 10:35:00,
2013-07-19 05:40:00,75.9,71.4,29.91,West,269,0.0,0.0,86,0.00,,,0.00,Wunderground v.1.15,2013-07-19 10:40:00,
2013-07-19 05:45:00,75.9,71.4,29.91,West,269,0.0,0.0,86,0.00,,,0.00,Wunderground v.1.15,2013-07-19 10:45:00,
2013-07-19 05:50:00,75.9,71.4,29.91,West,269,0.0,0.0,86,0.00,,,0.00,Wunderground v.1.15,2013-07-19 10:50:00,
2013-07-19 05:55:00,75.9,71.4,29.91,West,268,0.0,0.0,86,0.00,,,0.00,Wunderground v.1.15,2013-07-19 10:55:00,
2013-07-19 06:00:00,75.9,71.4,29.91,West,267,0.0,0.0,86,0.00,,,0.00,Wunderground v.1.15,2013-07-19 11:00:00,
2013-07-19 06:05:00,76.0,71.5,29.90,West,267,0.0,0.0,86,0.00,,,0.00,Wunderground v.1.15,2013-07-19 11:05:00,
2013-07-19 06:15:00,76.2,71.7,29.91,West,261,0.0,0.0,86,0.00,,,0.00,Wunderground v.1.15,2013-07-19 11:15:00,
2013-07-19 06:20:00,76.4,71.9,29.91,WSW,255,0.0,0.0,86,0.00,,,0.00,Wunderground v.1.15,2013-07-19 11:20:00,
2013-07-19 06:30:00,76.6,71.7,29.91,WSW,249,0.0,0.0,85,0.00,,,0.00,Wunderground v.1.15,2013-07-19 11:30:00,
2013-07-19 06:35:00,76.7,71.8,29.91,WSW,250,0.0,0.0,85,0.00,,,0.00,Wunderground v.1.15,2013-07-19 11:35:00,
2013-07-19 06:40:00,76.9,72.0,29.91,WSW,250,0.0,0.0,85,0.00,,,0.00,Wunderground v.1.15,2013-07-19 11:40:00,
2013-07-19 06:45:00,77.2,72.0,29.91,South,186,0.0,0.0,84,0.00,,,0.00,Wunderground v.1.15,2013-07-19 11:45:00,
2013-07-19 06:50:00,77.4,72.2,29.92,SSW,202,0.0,1.0,84,0.00,,,0.00,Wunderground v.1.15,2013-07-19 11:50:00,
2013-07-19 06:55:00,77.5,72.3,29.92,NW,308,0.0,1.0,84,0.00,,,0.00,Wunderground v.1.15,2013-07-19 11:55:00,
2013-07-19 07:00:00,77.7,72.5,29.91,WSW,257,0.0,0.0,84,0.00,,,0.00,Wunderground v.1.15,2013-07-19 12:00:00,
2013-07-19 07:05:00,77.8,72.2,29.91,WSW,244,1.0,3.0,83,0.00,,,0.00,Wunderground v.1.15,2013-07-19 12:05:00,
2013-07-19 07:15:00,78.2,72.3,29.91,South,186,0.0,0.0,82,0.00,,,0.00,Wunderground v.1.15,2013-07-19 12:15:00,
2013-07-19 07:20:00,78.4,72.4,29.92,WSW,238,0.0,0.0,82,0.00,,,0.00,Wunderground v.1.15,2013-07-19 12:20:00,
2013-07-19 07:25:00,78.6,72.3,29.91,West,276,0.0,0.0,81,0.00,,,0.00,Wunderground v.1.15,2013-07-19 12:25:00,
2013-07-19 07:35:00,78.7,72.4,29.91,NNW,330,0.0,1.0,81,0.00,,,0.00,Wunderground v.1.15,2013-07-19 12:35:00,
2013-07-19 07:40:00,78.8,72.1,29.91,SSW,209,1.0,1.0,80,0.00,,,0.00,Wunderground v.1.15,2013-07-19 12:40:00,
2013-07-19 07:45:00,79.2,72.5,29.91,West,268,1.0,1.0,80,0.00,,,0.00,Wunderground v.1.15,2013-07-19 12:45:00,
2013-07-19 07:50:00,79.8,72.7,29.91,South,191,0.0,0.0,79,0.00,,,0.00,Wunderground v.1.15,2013-07-19 12:50:00,
2013-07-19 07:55:00,80.3,72.8,29.91,West,275,1.0,1.0,78,0.00,,,0.00,Wunderground v.1.15,2013-07-19 12:55:00,
2013-07-19 08:00:00,80.7,72.8,29.91,WNW,291,1.0,1.0,77,0.00,,,0.00,Wunderground v.1.15,2013-07-19 13:00:00,
2013-07-19 08:05:00,81.2,73.3,29.91,North,360,1.0,1.0,77,0.00,,,0.00,Wunderground v.1.15,2013-07-19 13:05:00,
2013-07-19 08:15:00,82.1,73.4,29.91,West,275,1.0,4.0,75,0.00,,,0.00,Wunderground v.1.15,2013-07-19 13:15:00,
2013-07-19 08:20:00,82.2,73.5,29.91,WSW,256,1.0,1.0,75,0.00,,,0.00,Wunderground v.1.15,2013-07-19 13:20:00,
2013-07-19 08:25:00,82.5,73.8,29.92,West,276,0.0,1.0,75,0.00,,,0.00,Wunderground v.1.15,2013-07-19 13:25:00,
2013-07-19 08:35:00,83.4,74.2,29.92,West,281,0.0,2.0,74,0.00,,,0.00,Wunderground v.1.15,2013-07-19 13:35:00,
2013-07-19 08:40:00,83.8,74.2,29.92,West,266,1.0,4.0,73,0.00,,,0.00,Wunderground v.1.15,2013-07-19 13:40:00,
2013-07-19 08:50:00,84.0,74.0,29.92,SW,231,0.0,0.0,72,0.00,,,0.00,Wunderground v.1.15,2013-07-19 13:50:00,
2013-07-19 09:00:00,83.5,73.9,29.92,SSW,213,0.0,0.0,73,0.00,,,0.00,Wunderground v.1.15,2013-07-19 14:00:00,
2013-07-19 09:05:00,83.6,74.0,29.92,SW,215,0.0,1.0,73,0.00,,,0.00,Wunderground v.1.15,2013-07-19 14:05:00,
2013-07-19 09:15:00,83.5,73.5,29.93,NNW,334,0.0,1.0,72,0.00,,,0.00,Wunderground v.1.15,2013-07-19 14:15:00,
2013-07-19 09:20:00,83.5,73.9,29.93,WNW,299,0.0,0.0,73,0.00,,,0.00,Wunderground v.1.15,2013-07-19 14:20:00,
2013-07-19 09:25:00,83.8,73.4,29.93,WNW,288,1.0,1.0,71,0.00,,,0.00,Wunderground v.1.15,2013-07-19 14:25:00,
2013-07-19 09:30:00,83.8,73.4,29.93,West,275,1.0,1.0,71,0.00,,,0.00,Wunderground v.1.15,2013-07-19 14:30:00,
2013-07-19 09:35:00,84.2,74.2,29.92,SSW,209,0.0,1.0,72,0.00,,,0.00,Wunderground v.1.15,2013-07-19 14:35:00,
2013-07-19 09:40:00,84.5,74.1,29.92,West,277,0.0,1.0,71,0.00,,,0.00,Wunderground v.1.15,2013-07-19 14:40:00,
2013-07-19 09:45:00,84.7,74.3,29.92,West,281,1.0,1.0,71,0.00,,,0.00,Wunderground v.1.15,2013-07-19 14:45:00,
2013-07-19 09:50:00,84.9,75.3,29.92,South,190,0.0,0.0,73,0.00,,,0.00,Wunderground v.1.15,2013-07-19 14:50:00,
2013-07-19 10:00:00,86.1,74.7,29.91,South,184,1.0,1.0,69,0.00,,,0.00,Wunderground v.1.15,2013-07-19 15:00:00,
2013-07-19 10:05:00,86.6,74.8,29.91,ESE,102,1.0,1.0,68,0.00,,,0.00,Wunderground v.1.15,2013-07-19 15:05:00,
2013-07-19 10:15:00,86.8,75.0,29.90,WNW,302,1.0,5.0,68,0.00,,,0.00,Wunderground v.1.15,2013-07-19 15:15:00,
2013-07-19 10:20:00,86.9,74.6,29.91,WSW,244,1.0,1.0,67,0.00,,,0.00,Wunderground v.1.15,2013-07-19 15:20:00,
2013-07-19 10:25:00,87.4,75.1,29.90,SW,236,1.0,4.0,67,0.00,,,0.00,Wunderground v.1.15,2013-07-19 15:25:00,
2013-07-19 10:30:00,87.9,75.1,29.89,NNE,15,1.0,1.0,66,0.00,,,0.00,Wunderground v.1.15,2013-07-19 15:30:00,
2013-07-19 10:40:00,88.3,75.5,29.89,SW,227,1.0,1.0,66,0.00,,,0.00,Wunderground v.1.15,2013-07-19 15:40:00,
2013-07-19 10:45:00,87.7,74.5,29.89,South,187,1.0,1.0,65,0.00,,,0.00,Wunderground v.1.15,2013-07-19 15:45:00,
2013-07-19 10:50:00,87.9,74.2,29.89,WSW,245,1.0,1.0,64,0.00,,,0.00,Wunderground v.1.15,2013-07-19 15:50:00,
2013-07-19 10:55:00,88.3,74.6,29.89,West,281,1.0,8.0,64,0.00,,,0.00,Wunderground v.1.15,2013-07-19 15:55:00,
2013-07-19 11:00:00,88.7,75.0,29.89,WNW,299,1.0,1.0,64,0.00,,,0.00,Wunderground v.1.15,2013-07-19 16:00:00,
2013-07-19 11:05:00,89.4,74.7,29.89,NW,322,2.0,4.0,62,0.00,,,0.00,Wunderground v.1.15,2013-07-19 16:05:00,
2013-07-19 11:15:00,90.2,73.9,29.89,NW,309,3.0,3.0,59,0.00,,,0.00,Wunderground v.1.15,2013-07-19 16:15:00,
2013-07-19 11:20:00,90.5,74.2,29.88,East,87,2.0,2.0,59,0.00,,,0.00,Wunderground v.1.15,2013-07-19 16:20:00,
2013-07-19 11:25:00,90.5,74.7,29.88,NW,306,1.0,2.0,60,0.00,,,0.00,Wunderground v.1.15,2013-07-19 16:25:00,
2013-07-19 11:35:00,91.1,75.8,29.88,SE,144,1.0,1.0,61,0.00,,,0.00,Wunderground v.1.15,2013-07-19 16:35:00,
2013-07-19 11:40:00,91.2,76.4,29.87,South,171,1.0,1.0,62,0.00,,,0.00,Wunderground v.1.15,2013-07-19 16:40:00,
2013-07-19 11:45:00,91.3,75.5,29.88,SW,236,1.0,1.0,60,0.00,,,0.00,Wunderground v.1.15,2013-07-19 16:45:00,
2013-07-19 11:50:00,91.3,75.5,29.88,WNW,294,2.0,2.0,60,0.00,,,0.00,Wunderground v.1.15,2013-07-19 16:50:00,
2013-07-19 12:00:00,90.8,76.5,29.88,WSW,245,1.0,2.0,63,0.00,,,0.00,Wunderground v.1.15,2013-07-19 17:00:00,
2013-07-19 12:05:00,91.0,75.7,29.88,WSW,237,1.0,2.0,61,0.00,,,0.00,Wunderground v.1.15,2013-07-19 17:05:00,
2013-07-19 12:15:00,91.4,76.5,29.87,West,278,1.0,8.0,62,0.00,,,0.00,Wunderground v.1.15,2013-07-19 17:15:00,
2013-07-19 12:20:00,91.6,76.2,29.87,West,261,3.0,8.0,61,0.00,,,0.00,Wunderground v.1.15,2013-07-19 17:20:00,
2013-07-19 12:25:00,91.7,76.3,29.87,SW,225,3.0,8.0,61,0.00,,,0.00,Wunderground v.1.15,2013-07-19 17:25:00,
2013-07-19 12:30:00,92.1,76.7,29.86,West,277,2.0,2.0,61,0.00,,,0.00,Wunderground v.1.15,2013-07-19 17:30:00,
2013-07-19 12:35:00,92.6,77.2,29.86,East,92,1.0,5.0,61,0.00,,,0.00,Wunderground v.1.15,2013-07-19 17:35:00,
2013-07-19 12:45:00,92.8,76.9,29.86,West,267,1.0,1.0,60,0.00,,,0.00,Wunderground v.1.15,2013-07-19 17:45:00,
2013-07-19 12:50:00,93.0,78.1,29.86,West,271,2.0,2.0,62,0.00,,,0.00,Wunderground v.1.15,2013-07-19 17:50:00,
2013-07-19 13:00:00,92.7,76.3,29.86,NNW,340,1.0,1.0,59,0.00,,,0.00,Wunderground v.1.15,2013-07-19 18:00:00,
2013-07-19 13:05:00,91.1,75.8,29.86,ESE,107,1.0,1.0,61,0.00,,,0.00,Wunderground v.1.15,2013-07-19 18:05:00,
2013-07-19 13:15:00,91.3,76.5,29.86,WSW,237,0.0,1.0,62,0.00,,,0.00,Wunderground v.1.15,2013-07-19 18:15:00,
2013-07-19 13:25:00,92.8,76.9,29.86,WNW,298,2.0,2.0,60,0.00,,,0.00,Wunderground v.1.15,2013-07-19 18:25:00,
2013-07-19 13:30:00,92.6,76.2,29.86,WNW,282,1.0,1.0,59,0.00,,,0.00,Wunderground v.1.15,2013-07-19 18:30:00,
2013-07-19 13:35:00,92.0,77.1,29.86,West,268,1.0,1.0,62,0.00,,,0.00,Wunderground v.1.15,2013-07-19 18:35:00,
2013-07-19 13:40:00,91.7,76.3,29.86,WNW,294,1.0,3.0,61,0.00,,,0.00,Wunderground v.1.15,2013-07-19 18:40:00,
2013-07-19 13:45:00,91.8,76.9,29.85,NW,313,1.0,3.0,62,0.00,,,0.00,Wunderground v.1.15,2013-07-19 18:45:00,
2013-07-19 13:50:00,91.5,77.1,29.85,NNE,13,1.0,5.0,63,0.00,,,0.00,Wunderground v.1.15,2013-07-19 18:50:00,
2013-07-19 13:55:00,91.3,76.5,29.85,West,277,1.0,5.0,62,0.00,,,0.00,Wunderground v.1.15,2013-07-19 18:55:00,
2013-07-19 14:05:00,90.8,76.5,29.84,West,273,1.0,2.0,63,0.00,,,0.00,Wunderground v.1.15,2013-07-19 19:05:00,
2013-07-19 14:15:00,91.5,76.6,29.85,WNW,303,1.0,1.0,62,0.00,,,0.00,Wunderground v.1.15,2013-07-19 19:15:00,
2013-07-19 14:20:00,92.0,77.1,29.84,NW,312,1.0,1.0,62,0.00,,,0.00,Wunderground v.1.15,2013-07-19 19:20:00,
2013-07-19 14:25:00,92.4,77.0,29.84,West,279,1.0,1.0,61,0.00,,,0.00,Wunderground v.1.15,2013-07-19 19:25:00,
2013-07-19 14:35:00,93.3,77.3,29.84,NNE,14,2.0,6.0,60,0.00,,,0.00,Wunderground v.1.15,2013-07-19 19:35:00,
2013-07-19 14:40:00,93.8,77.3,29.84,WSW,242,2.0,2.0,59,0.00,,,0.00,Wunderground v.1.15,2013-07-19 19:40:00,
2013-07-19 14:45:00,94.1,77.1,29.84,WNW,290,2.0,2.0,58,0.00,,,0.00,Wunderground v.1.15,2013-07-19 19:45:00,
2013-07-19 14:50:00,94.2,76.6,29.84,NW,306,3.0,3.0,57,0.00,,,0.00,Wunderground v.1.15,2013-07-19 19:50:00,
2013-07-19 14:55:00,94.4,75.7,29.84,WNW,295,3.0,3.0,55,0.00,,,0.00,Wunderground v.1.15,2013-07-19 19:55:00,
2013-07-19 15:05:00,93.8,75.7,29.84,West,274,3.0,6.0,56,0.00,,,0.00,Wunderground v.1.15,2013-07-19 20:05:00,
2013-07-19 15:15:00,94.7,77.1,29.83,NW,306,2.0,3.0,57,0.00,,,0.00,Wunderground v.1.15,2013-07-19 20:15:00,
2013-07-19 15:20:00,94.8,76.7,29.83,NNW,346,1.0,5.0,56,0.00,,,0.00,Wunderground v.1.15,2013-07-19 20:20:00,
2013-07-19 15:25:00,94.8,76.7,29.83,NW,310,2.0,5.0,56,0.00,,,0.00,Wunderground v.1.15,2013-07-19 20:25:00,
2013-07-19 15:35:00,93.5,75.4,29.83,SE,146,2.0,3.0,56,0.00,,,0.00,Wunderground v.1.15,2013-07-19 20:35:00,
2013-07-19 15:40:00,92.7,75.8,29.83,WNW,300,1.0,4.0,58,0.00,,,0.00,Wunderground v.1.15,2013-07-19 20:40:00,
2013-07-19 15:50:00,93.5,77.0,29.83,West,280,2.0,2.0,59,0.00,,,0.00,Wunderground v.1.15,2013-07-19 20:50:00,
2013-07-19 15:55:00,94.3,76.7,29.83,North,355,2.0,5.0,57,0.00,,,0.00,Wunderground v.1.15,2013-07-19 20:55:00,
2013-07-19 16:00:00,94.6,77.5,29.83,NNW,337,1.0,1.0,58,0.00,,,0.00,Wunderground v.1.15,2013-07-19 21:00:00,
2013-07-19 16:05:00,94.7,77.1,29.83,WSW,254,1.0,1.0,57,0.00,,,0.00,Wunderground v.1.15,2013-07-19 21:05:00,
2013-07-19 16:15:00,94.8,77.2,29.82,WNW,292,1.0,1.0,57,0.00,,,0.00,Wunderground v.1.15,2013-07-19 21:15:00,
2013-07-19 16:20:00,94.1,77.6,29.82,WNW,285,1.0,1.0,59,0.00,,,0.00,Wunderground v.1.15,2013-07-19 21:20:00,
2013-07-19 16:25:00,94.1,79.1,29.82,SSW,192,1.0,4.0,62,0.00,,,0.00,Wunderground v.1.15,2013-07-19 21:25:00,
2013-07-19 16:30:00,94.1,78.1,29.82,WNW,296,1.0,1.0,60,0.00,,,0.00,Wunderground v.1.15,2013-07-19 21:30:00,
2013-07-19 16:35:00,94.4,76.8,29.81,South,190,1.0,3.0,57,0.00,,,0.00,Wunderground v.1.15,2013-07-19 21:35:00,
2013-07-19 16:45:00,94.0,77.5,29.82,SSE,150,2.0,2.0,59,0.00,,,0.00,Wunderground v.1.15,2013-07-19 21:45:00,
2013-07-19 16:50:00,94.2,77.2,29.81,South,175,1.0,1.0,58,0.00,,,0.00,Wunderground v.1.15,2013-07-19 21:50:00,
2013-07-19 17:00:00,95.0,77.9,29.81,North,355,1.0,1.0,58,0.00,,,0.00,Wunderground v.1.15,2013-07-19 22:00:00,
2013-07-19 17:05:00,94.7,77.6,29.81,NW,321,1.0,5.0,58,0.00,,,0.00,Wunderground v.1.15,2013-07-19 22:05:00,
2013-07-19 17:15:00,93.5,78.0,29.81,WNW,288,2.0,2.0,61,0.00,,,0.00,Wunderground v.1.15,2013-07-19 22:15:00,
2013-07-19 17:25:00,93.3,77.8,29.81,NW,319,2.0,3.0,61,0.00,,,0.00,Wunderground v.1.15,2013-07-19 22:25:00,
2013-07-19 17:30:00,92.7,77.3,29.80,NW,319,2.0,2.0,61,0.00,,,0.00,Wunderground v.1.15,2013-07-19 22:30:00,
2013-07-19 17:35:00,92.1,77.2,29.80,NNW,338,2.0,4.0,62,0.00,,,0.00,Wunderground v.1.15,2013-07-19 22:35:00,
2013-07-19 17:40:00,91.6,77.7,29.80,NNW,327,1.0,1.0,64,0.00,,,0.00,Wunderground v.1.15,2013-07-19 22:40:00,
2013-07-19 17:50:00,91.0,78.1,29.80,NNW,338,1.0,1.0,66,0.00,,,0.00,Wunderground v.1.15,2013-07-19 22:50:00,
2013-07-19 18:00:00,90.6,77.7,29.80,NNW,347,1.0,1.0,66,0.00,,,0.00,Wunderground v.1.15,2013-07-19 23:00:00,
2013-07-19 18:05:00,90.3,77.8,29.80,NNW,346,1.0,1.0,67,0.00,,,0.00,Wunderground v.1.15,2013-07-19 23:05:00,
2013-07-19 18:15:00,89.7,77.3,29.80,NNW,342,1.0,1.0,67,0.00,,,0.00,Wunderground v.1.15,2013-07-19 23:15:00,
2013-07-19 18:25:00,89.3,76.9,29.79,North,350,1.0,1.0,67,0.00,,,0.00,Wunderground v.1.15,2013-07-19 23:25:00,
2013-07-19 18:30:00,89.0,76.6,29.79,NNW,348,1.0,4.0,67,0.00,,,0.00,Wunderground v.1.15,2013-07-19 23:30:00,
2013-07-19 18:40:00,88.8,76.9,29.79,NNW,348,0.0,0.0,68,0.00,,,0.00,Wunderground v.1.15,2013-07-19 23:40:00,
2013-07-19 18:45:00,89.0,77.1,29.79,NNW,348,0.0,0.0,68,0.00,,,0.00,Wunderground v.1.15,2013-07-19 23:45:00,
2013-07-19 18:50:00,89.0,77.1,29.79,NNW,348,0.0,0.0,68,0.00,,,0.00,Wunderground v.1.15,2013-07-19 23:50:00,
2013-07-19 18:55:00,88.8,76.9,29.79,NNW,348,0.0,0.0,68,0.00,,,0.00,Wunderground v.1.15,2013-07-19 23:55:00,
2013-07-19 19:00:00,88.5,77.0,29.80,NNW,348,0.0,0.0,69,0.00,,,0.00,Wunderground v.1.15,2013-07-20 00:00:00,
2013-07-19 19:05:00,88.6,77.6,29.80,NNW,348,0.0,1.0,70,0.00,,,0.00,Wunderground v.1.15,2013-07-20 00:05:00,
2013-07-19 19:15:00,88.4,76.9,29.80,NNW,348,1.0,1.0,69,0.00,,,0.00,Wunderground v.1.15,2013-07-20 00:15:00,
2013-07-19 19:20:00,88.2,76.3,29.80,NNW,346,1.0,1.0,68,0.00,,,0.00,Wunderground v.1.15,2013-07-20 00:20:00,
2013-07-19 19:30:00,87.9,76.0,29.81,NNW,347,0.0,0.0,68,0.00,,,0.00,Wunderground v.1.15,2013-07-20 00:30:00,
2013-07-19 19:35:00,87.1,75.7,29.81,NNW,347,0.0,0.0,69,0.00,,,0.00,Wunderground v.1.15,2013-07-20 00:35:00,
2013-07-19 19:45:00,85.5,75.9,29.81,NNE,26,0.0,0.0,73,0.00,,,0.00,Wunderground v.1.15,2013-07-20 00:45:00,
2013-07-19 19:50:00,85.0,75.8,29.81,NNE,25,0.0,0.0,74,0.00,,,0.00,Wunderground v.1.15,2013-07-20 00:50:00,
2013-07-19 19:55:00,84.8,75.6,29.81,NNE,26,0.0,0.0,74,0.00,,,0.00,Wunderground v.1.15,2013-07-20 00:55:00,
2013-07-19 20:00:00,84.7,76.3,29.80,NNE,26,0.0,0.0,76,0.00,,,0.00,Wunderground v.1.15,2013-07-20 01:00:00,
2013-07-19 20:05:00,83.8,75.0,29.81,NNE,26,0.0,0.0,75,0.00,,,0.00,Wunderground v.1.15,2013-07-20 01:05:00,
2013-07-19 20:15:00,82.5,74.6,29.81,NNE,26,0.0,0.0,77,0.00,,,0.00,Wunderground v.1.15,2013-07-20 01:15:00,
2013-07-19 20:20:00,82.1,74.6,29.81,NNE,25,0.0,0.0,78,0.00,,,0.00,Wunderground v.1.15,2013-07-20 01:20:00,
2013-07-19 20:30:00,81.4,74.6,29.81,NNE,25,0.0,0.0,80,0.00,,,0.00,Wunderground v.1.15,2013-07-20 01:30:00,
2013-07-19 20:40:00,80.5,74.1,29.82,NNE,26,0.0,0.0,81,0.00,,,0.00,Wunderground v.1.15,2013-07-20 01:40:00,
2013-07-19 20:50:00,79.9,72.8,29.83,NNE,26,0.0,0.0,79,0.00,,,0.00,Wunderground v.1.15,2013-07-20 01:50:00,
2013-07-19 21:00:00,79.8,72.7,29.83,NNE,25,0.0,0.0,79,0.00,,,0.00,Wunderground v.1.15,2013-07-20 02:00:00,
2013-07-19 21:05:00,79.8,72.7,29.83,NNE,26,0.0,0.0,79,0.00,,,0.00,Wunderground v.1.15,2013-07-20 02:05:00,
2013-07-19 21:15:00,79.3,72.6,29.84,NNE,25,0.0,0.0,80,0.00,,,0.00,Wunderground v.1.15,2013-07-20 02:15:00,
2013-07-19 21:20:00,78.8,72.1,29.84,NNE,26,0.0,0.0,80,0.00,,,0.00,Wunderground v.1.15,2013-07-20 02:20:00,
2013-07-19 21:30:00,77.7,71.4,29.84,NNE,26,0.0,0.0,81,0.00,,,0.00,Wunderground v.1.15,2013-07-20 02:30:00,
2013-07-19 21:35:00,77.4,71.5,29.85,NNE,26,0.0,0.0,82,0.00,,,0.00,Wunderground v.1.15,2013-07-20 02:35:00,
2013-07-19 21:40:00,76.9,71.0,29.85,NNE,26,0.0,0.0,82,0.00,,,0.00,Wunderground v.1.15,2013-07-20 02:40:00,
2013-07-19 21:45:00,76.5,70.2,29.85,NNE,26,0.0,0.0,81,0.00,,,0.00,Wunderground v.1.15,2013-07-20 02:45:00,
2013-07-19 21:50:00,76.1,70.2,29.86,NNE,26,0.0,0.0,82,0.00,,,0.00,Wunderground v.1.15,2013-07-20 02:50:00,
2013-07-19 21:55:00,75.9,70.0,29.86,NNE,26,0.0,0.0,82,0.00,,,0.00,Wunderground v.1.15,2013-07-20 02:55:00,
2013-07-19 22:05:00,75.6,69.7,29.86,NE,38,0.0,0.0,82,0.00,,,0.00,Wunderground v.1.15,2013-07-20 03:05:00,
2013-07-19 22:15:00,75.1,69.2,29.86,NE,38,0.0,0.0,82,0.00,,,0.00,Wunderground v.1.15,2013-07-20 03:15:00,
2013-07-19 22:20:00,74.8,69.3,29.86,NE,37,0.0,0.0,83,0.00,,,0.00,Wunderground v.1.15,2013-07-20 03:20:00,
2013-07-19 22:25:00,74.4,69.2,29.87,NE,38,0.0,0.0,84,0.00,,,0.00,Wunderground v.1.15,2013-07-20 03:25:00,
2013-07-19 22:35:00,73.7,68.9,29.86,NE,38,0.0,0.0,85,0.00,,,0.00,Wunderground v.1.15,2013-07-20 03:35:00,
2013-07-19 22:45:00,73.1,68.7,29.87,NE,38,0.0,0.0,86,0.00,,,0.00,Wunderground v.1.15,2013-07-20 03:45:00,
2013-07-19 22:50:00,72.9,68.5,29.87,NE,37,0.0,0.0,86,0.00,,,0.00,Wunderground v.1.15,2013-07-20 03:50:00,
2013-07-19 22:55:00,72.8,68.4,29.87,NE,38,0.0,0.0,86,0.00,,,0.00,Wunderground v.1.15,2013-07-20 03:55:00,
2013-07-19 23:00:00,72.6,68.5,29.87,NE,38,0.0,0.0,87,0.00,,,0.00,Wunderground v.1.15,2013-07-20 04:00:00,
2013-07-19 23:05:00,72.3,68.2,29.87,NE,37,0.0,0.0,87,0.00,,,0.00,Wunderground v.1.15,2013-07-20 04:05:00,
2013-07-19 23:10:00,72.1,68.3,29.87,NE,38,0.0,0.0,88,0.00,,,0.00,Wunderground v.1.15,2013-07-20 04:10:00,
2013-07-19 23:20:00,71.5,68.1,29.87,NE,38,0.0,0.0,89,0.00,,,0.00,Wunderground v.1.15,2013-07-20 04:20:00,
2013-07-19 23:25:00,71.3,68.2,29.87,NE,37,0.0,0.0,90,0.00,,,0.00,Wunderground v.1.15,2013-07-20 04:25:00,
2013-07-19 23:30:00,71.2,68.1,29.87,NE,38,0.0,0.0,90,0.00,,,0.00,Wunderground v.1.15,2013-07-20 04:30:00,
2013-07-19 23:35:00,71.0,67.9,29.88,NE,38,0.0,0.0,90,0.00,,,0.00,Wunderground v.1.15,2013-07-20 04:35:00,
2013-07-19 23:40:00,70.8,68.0,29.88,NE,37,0.0,0.0,91,0.00,,,0.00,Wunderground v.1.15,2013-07-20 04:40:00,
2013-07-19 23:50:00,70.4,67.6,29.87,NE,37,0.0,0.0,91,0.00,,,0.00,Wunderground v.1.15,2013-07-20 04:50:00,
2013-07-19 23:55:00,70.1,67.3,29.87,NE,37,0.0,0.0,91,0.00,,,0.00,Wunderground v.1.15,2013-07-20 04:55:00,